Home > Weather > Wardha > Past weeks

Flag for India Past Weather in Wardha, Maharashtra, India — Yesterday and Last 2 Weeks

Now
90 °F

Broken clouds.


Feels Like: 100 °F
Forecast: 81 / 92 °F
Wind: 9 mph from Northwest

Location: Nagpur Sonegaon

Current Time: Jul 1, 2016 at 10:08:00 AM

Latest Report: Jul 1, 2016 at 9:30 AM


Visibility: 3 mi

Pressure: 29.56 "Hg

Humidity: 63%

Dew Point: 75 °F

Location of WardhaLocation

Past Weather in Wardha — Graph

°F

Wardha Temperature Yesterday

Maximum temperature yesterday: 97 °F (at 2:00 PM)
Minimum temperature yesterday: 82 °F (at 6:30 AM)
Average temperature yesterday: 88 °F

High & Low Weather Summary for the Past Weeks

 TemperatureHumidityPressure
High106 °F (Jun 16, 4:30 PM)100% (Jun 23, 4:00 AM)29.77 "Hg (Jun 23, 4:00 AM)
Low70 °F (Jun 23, 4:00 AM)15% (Jun 26, 3:30 PM)29.47 "Hg (Jun 16, 4:00 PM)
Average87 °F68%29.61 "Hg
* Reported Jun 16 8:30 AM — Jul 1 8:30 AM, Wardha, Weather by CustomWeather, © 2016

Note: Actual official high and low records may vary slightly from our data, if they occured in-between our weather recording intervals... More about our weather records

Advertising

Wardha Weather History for the Previous 24 Hours

Scroll right to see more
 ConditionsComfort  
Time TempWeatherWind HumidityBarometerVisibility
8:30 AM
Fri, Jul 1
88 °FBroken clouds.8 mph70%29.56 "Hg2 mi
8:00 AM86 °FBroken clouds.7 mph75%29.56 "Hg2 mi
7:30 AM84 °FBroken clouds.6 mph79%29.56 "Hg2 mi
7:00 AM84 °FScattered clouds.3 mph79%29.56 "Hg2 mi
6:30 AM84 °FScattered clouds.6 mph74%29.53 "Hg2 mi
6:00 AM82 °FPassing clouds.6 mph84%29.53 "Hg2 mi
5:30 AM84 °FPassing clouds.3 mph79%29.53 "Hg2 mi
5:00 AM82 °FPassing clouds.6 mph84%29.53 "Hg2 mi
4:30 AM82 °FPartly cloudy.3 mph84%29.53 "Hg2 mi
4:00 AM82 °FPartly cloudy.3 mph84%29.53 "Hg2 mi
3:30 AM84 °FPassing clouds.5 mph79%29.56 "Hg2 mi
3:00 AM84 °FPartly cloudy.3 mph84%29.56 "Hg2 mi
2:30 AM84 °FPartly cloudy.3 mph84%29.56 "Hg2 mi
2:00 AM84 °FPartly cloudy.3 mph84%29.56 "Hg2 mi
1:30 AM84 °FPartly cloudy.2 mph84%29.56 "Hg2 mi
1:00 AM84 °FPartly cloudy.2 mph84%29.56 "Hg2 mi
12:30 AM84 °FPartly cloudy.3 mph84%29.56 "Hg2 mi
12:00 AM84 °FPassing clouds.No wind84%29.62 "Hg2 mi
11:30 PM
Thu, Jun 30
86 °FPassing clouds.2 mph79%29.62 "Hg2 mi
11:00 PM84 °FPassing clouds.No wind84%29.62 "Hg2 mi
10:30 PM84 °FPassing clouds.2 mph84%29.62 "Hg2 mi
10:00 PM86 °FPassing clouds.2 mph75%29.62 "Hg2 mi
9:30 PM84 °FPassing clouds.3 mph79%29.59 "Hg2 mi
9:00 PM86 °FPassing clouds.5 mph75%29.56 "Hg2 mi
8:30 PM86 °FPassing clouds.5 mph75%29.56 "Hg2 mi
8:00 PM86 °FPassing clouds.7 mph55%29.56 "Hg2 mi
7:30 PM86 °FPassing clouds.8 mph75%29.56 "Hg2 mi
6:00 PM90 °FScattered clouds.8 mph75%29.53 "Hg2 mi
4:00 PM90 °FThunderstorms. Scattered clouds.12 mph71%29.50 "Hg1 mi
3:30 PM95 °FThundershowers. Scattered clouds.10 mph63%29.50 "Hg2 mi
3:00 PM95 °FScattered clouds.7 mph63%29.50 "Hg2 mi
2:30 PM97 °FScattered clouds.7 mph60%29.53 "Hg2 mi
2:00 PM97 °FScattered clouds.3 mph53%29.53 "Hg2 mi
1:00 PM95 °FScattered clouds.2 mph56%29.56 "Hg2 mi
12:30 PM95 °FScattered clouds.5 mph60%29.59 "Hg2 mi
12:00 PM95 °FScattered clouds.5 mph56%29.59 "Hg2 mi
11:30 AM91 °FScattered clouds.No wind63%29.59 "Hg2 mi
10:30 AM91 °FScattered clouds.2 mph63%29.62 "Hg2 mi
10:00 AM90 °FScattered clouds.3 mph71%29.62 "Hg2 mi
Weather by CustomWeather, © 2016

See weather overviewHow to use our weather pages